{"data":{"norad_id":59952,"intl_designator":"2024-107H","name":"STARLINK-11124 [DTC]","alt_names":[],"object_type":"PAYLOAD","status":"ACTIVE","operator":null,"country":"US","launch_date":"2024-06-05","launch_site_code":"AFETR","launch_vehicle":null,"mission":null,"orbit_class":"UNKNOWN","rcs_meters":null,"size_class":null,"mass_kg":null,"dimensions":null,"purposes":["comms"],"wikipedia_slug":null,"has_3d_model":false,"image_url":null,"decayed_at":null,"tle_current":{"epoch":"2026-05-24T22:52:40.603872Z","epoch_age_seconds":83062,"freshness":"FRESH","line1":"1 59952U 24107H   26144.95324773  .00000597  00000+0  97834-5 0  9997","line2":"2 59952  53.1589 235.3376 0000955  95.2409 264.8718 15.69719105114196","mean_motion":15.69719105,"eccentricity":9.55e-5,"inclination_deg":53.1589,"raan_deg":235.3376,"arg_perigee_deg":95.2409,"mean_anomaly_deg":264.8718,"bstar":9.7834e-6,"rev_number":11419,"period_min":91.73615810709,"perigee_km":359.05723202101,"apogee_km":360.34415902085,"semimajor_km":6737.8376955209,"source":"CELESTRAK","updated_at":"2026-05-25T13:38:19.128146Z"}}}